Location: Possagno
(45.8500°N, 11.8667°E)
Time: 07:35:26
(UTC+00:00)

STARLINK-2701 - Pass Details

Date: 30 July 2021
Orbit: 546 x 548 km, 53.1° (Epoch: 22 September)

Event Time Altitude Azimuth Distance (km) Brightness Sun altitude
Rises 20:42:17 0° 290° (WNW) 2,719 8.2 -16.7°
Reaches altitude 10° 20:45:14 10° 268° (W) 1,821 6.7 -17.0°
Maximum altitude 20:47:44 16° 231° (SW) 1,485 5.8 -17.3°
Enters shadow 20:49:11 13° 207° (SSW) 1,604 5.7 -17.4°
